| time (UTC) | temp C | wind direction | speed KPH | gust KPH | rain 1hr cm | rain 24hr cm | rain mn cm | humidity % | barometer mb |
| 20260504081551 | 20 | 5 | 3.2 | 12.9 | 0.00 | 0.51 | 0.51 | 77 | 1010.7 |
| 20260504044537 | 20 | 355 | 8.0 | 17.7 | 0.00 | 0.51 | 0.51 | 79 | 1010.4 |
| 20260504043041 | 20 | 11 | 8.0 | 17.7 | 0.00 | 0.51 | 0.51 | 79 | 1010.4 |
| 20260504041536 | 20 | 30 | 11.3 | 20.9 | 0.00 | 0.51 | 0.51 | 78 | 1010.4 |
| 20260504040034 | 20 | 29 | 6.4 | 22.5 | 0.00 | 0.51 | 0.51 | 81 | 1010.8 |
| 20260504034529 | 20 | 343 | 8.0 | 16.1 | 0.00 | 0.51 | 0.51 | 84 | 1011.0 |
| 20260504033024 | 18 | 25 | 4.8 | 12.9 | 0.03 | 0.51 | 0.51 | 90 | 1011.1 |
| 20260504031519 | 17 | 23 | 4.8 | 16.1 | 0.08 | 0.51 | 0.51 | 89 | 1011.3 |
| 20260504030025 | 17 | 27 | 3.2 | 9.7 | 0.18 | 0.51 | 0.51 | 91 | 1011.7 |
| 20260504024517 | 17 | 12 | 4.8 | 9.7 | 0.25 | 0.51 | 0.51 | 91 | 1012.1 |
| 20260504023017 | 17 | 26 | 6.4 | 9.7 | 0.25 | 0.48 | 0.48 | 91 | 1012.4 |
| 20260504021516 | 17 | 32 | 1.6 | 8.0 | 0.25 | 0.43 | 0.43 | 91 | 1012.7 |
| 20260504020015 | 17 | 38 | 3.2 | 9.7 | 0.23 | 0.33 | 0.33 | 91 | 1013.1 |
| 20260504014519 | 17 | 11 | 3.2 | 9.7 | 0.20 | 0.23 | 0.23 | 90 | 1013.3 |
| 20260504013030 | 17 | 24 | 1.6 | 6.4 | 0.15 | 0.20 | 0.20 | 91 | 1013.5 |
| 20260504011513 | 17 | 9 | 1.6 | 6.4 | 0.13 | 0.15 | 0.15 | 90 | 1013.8 |
| 20260504010011 | 18 | 28 | 3.2 | 6.4 | 0.05 | 0.08 | 0.08 | 89 | 1013.9 |
| 20260504004510 | 18 | 84 | 0.0 | 4.8 | 0.00 | 0.05 | 0.05 | 88 | 1013.9 |
| 20260504003009 | 18 | 85 | 1.6 | 4.8 | 0.00 | 0.05 | 0.05 | 88 | 1013.7 |
| 20260504001507 | 17 | 86 | 0.0 | 3.2 | 0.05 | 0.05 | 0.05 | 89 | 1013.6 |
| 20260504000005 | 17 | 86 | 1.6 | 6.4 | 0.05 | 0.05 | 0.05 | 91 | 1013.4 |
| 20260503234505 | 17 | 229 | 0.0 | 4.8 | 0.05 | 0.05 | 0.05 | 91 | 1013.5 |
| 20260503233003 | 17 | 275 | 0.0 | 1.6 | 0.05 | 0.05 | 0.05 | 89 | 1013.6 |
| 20260503231600 | 17 | 281 | 0.0 | 4.8 | 0.00 | 0.00 | 0.00 | 88 | 1014.0 |
| 20260503230116 | 17 | 310 | 3.2 | 11.3 | 0.00 | 0.00 | 0.00 | 85 | 1014.2 |
| 20260503224605 | 17 | 296 | 1.6 | 12.9 | 0.00 | 0.00 | 0.00 | 86 | 1013.8 |
| 20260503223056 | 17 | 329 | 3.2 | 9.7 | 0.00 | 0.00 | 0.00 | 87 | 1013.5 |
| 20260503221602 | 17 | 329 | 3.2 | 9.7 | 0.00 | 0.00 | 0.00 | 88 | 1013.1 |
| 20260503220052 | 16 | 348 | 1.6 | 6.4 | 0.00 | 0.00 | 0.00 | 88 | 1012.9 |
| 20260503214555 | 16 | 327 | 3.2 | 9.7 | 0.00 | 0.00 | 0.00 | 88 | 1013.0 |
| 20260503213046 | 16 | 309 | 1.6 | 8.0 | 0.00 | 0.00 | 0.00 | 89 | 1012.8 |
| 20260503211542 | 16 | 360 | 3.2 | 12.9 | 0.00 | 0.00 | 0.00 | 89 | 1012.7 |
| 20260503210041 | 16 | 360 | 1.6 | 6.4 | 0.00 | 0.00 | 0.00 | 90 | 1012.5 |
| 20260503204540 | 16 | 335 | 1.6 | 6.4 | 0.00 | 0.00 | 0.00 | 91 | 1012.4 |
| 20260503203054 | 16 | 20 | 3.2 | 8.0 | 0.00 | 0.00 | 0.00 | 92 | 1012.4 |
| 20260503201538 | 15 | 281 | 0.0 | 6.4 | 0.00 | 0.00 | 0.00 | 92 | 1012.2 |
| 20260503200038 | 15 | 281 | 1.6 | 8.0 | 0.00 | 0.00 | 0.00 | 93 | 1012.1 |
| 20260503194542 | 15 | 335 | 0.0 | 4.8 | 0.00 | 0.00 | 0.00 | 93 | 1012.0 |
| 20260503193039 | 15 | 338 | 0.0 | 0.0 | 0.00 | 0.00 | 0.00 | 93 | 1011.8 |
| 20260503191543 | 15 | 338 | 0.0 | 0.0 | 0.00 | 0.00 | 0.00 | 94 | 1011.8 |
| 20260503190041 | 15 | 338 | 0.0 | 0.0 | 0.00 | 0.00 | 0.00 | 93 | 1011.9 |
| 20260503184534 | 15 | 338 | 0.0 | 0.0 | 0.00 | 0.00 | 0.00 | 94 | 1012.0 |
| 20260503183034 | 15 | 338 | 0.0 | 0.0 | 0.00 | 0.00 | 0.00 | 93 | 1012.0 |
| 20260503181536 | 15 | 338 | 0.0 | 0.0 | 0.00 | 0.00 | 0.00 | 93 | 1011.9 |
| 20260503180035 | 15 | 338 | 0.0 | 0.0 | 0.00 | 0.00 | 0.00 | 93 | 1011.9 |
| 20260503174532 | 15 | 338 | 0.0 | 0.0 | 0.00 | 0.00 | 0.00 | 93 | 1011.8 |
| 20260503173031 | 15 | 338 | 0.0 | 0.0 | 0.00 | 0.00 | 0.00 | 93 | 1011.8 |
| 20260503171528 | 15 | 338 | 0.0 | 0.0 | 0.00 | 0.00 | 0.00 | 93 | 1012.0 |